[[{"header":{"parameterUnit":"m.s-1","parameterCategory":2,"la1":30.2991,"la2":30.254,"lo1":-89.0895,"lo2":-89.0444,"dy":0.0017,"dx":0.0017,"nx":28,"ny":28,"refTime":"2025-02-10T03:00:00:Z","depth":"0","parameterNumber":2,"parameterNumberName":"U-component_of_CURRENTS"},"data":[0,0,0,0,0,0,0,0,0,0,0,0,0,0,0,0,0,0,0,0,0,0,0,0,0,0,0,0,0,0,0,0,0,0,0,0,0,0,0,0,0,0,0,0,0,0,0,0,0,0,0,0,0,0,0,0,0,0,-0.2104,-0.2104,0,-0.2124,-0.2124,-0.2124,-0.2095,-0.2094,-0.2093,-0.2092,-0.2058,-0.2058,-0.2058,0,0,0,0,0,0,0,0,0,0,0,0,0,-0.2045,-0.2046,-0.2104,-0.2104,-0.2105,-0.2124,-0.2124,-0.2124,-0.2095,-0.2094,-0.2093,-0.2092,-0.2058,-0.2058,-0.2058,0,0,0,0,0,0,0,0,0,0,0,0,0,-0.2066,-0.2046,-0.2104,-0.2094,-0.2094,-0.2124,-0.2124,-0.2124,-0.2095,-0.2094,-0.2092,-0.2091,-0.2058,-0.2058,-0.2057,-0.2081,0,0,-0.2057,-0.2057,0,0,0,0,0,0,0,0,-0.2065,-0.2068,-0.2095,-0.2095,-0.2094,-0.2107,-0.209,-0.2108,-0.2095,-0.2092,-0.2092,-0.2091,-0.2072,-0.207,-0.2075,-0.208,-0.2078,-0.2057,-0.2057,-0.2057,-0.2057,0,0,0,0,0,0,0,-0.2063,-0.2067,-0.211,-0.2096,-0.2095,-0.209,-0.2091,-0.2093,-0.2086,-0.2093,-0.2091,-0.2097,-0.207,-0.2075,-0.2073,-0.2078,-0.2057,-0.2057,-0.2057,-0.2056,-0.2099,-0.21,0,0,0,0,0,0,-0.2067,-0.2066,-0.2109,-0.211,-0.2078,-0.2092,-0.2094,-0.2103,-0.2087,-0.2085,-0.2098,-0.2095,-0.2076,-0.2074,-0.2072,-0.2094,-0.2057,-0.2056,-0.2056,-0.2098,-0.2099,-0.2101,0,0,0,0,0,0,-0.2065,-0.207,-0.2108,-0.209,-0.2094,-0.2095,-0.2105,-0.2104,-0.2103,-0.2092,-0.2088,-0.2098,-0.2075,-0.2072,-0.2076,-0.2093,-0.2056,-0.2056,-0.2096,-0.2098,-0.21,-0.2142,0,0,0,0,0,0,-0.2063,-0.207,-0.2074,-0.209,-0.2096,-0.2128,-0.2106,-0.2105,-0.211,-0.2107,-0.2091,-0.2087,-0.2074,-0.2076,-0.2075,-0.2092,-0.2056,-0.2095,-0.2097,-0.2099,-0.2139,-0.2145,-0.215,0,0,0,0,0,-0.2061,-0.2075,-0.2074,-0.2079,-0.2103,-0.2129,-0.2132,-0.2126,-0.2111,-0.2118,-0.2107,-0.2087,-0.2091,-0.2077,-0.2076,-0.2092,-0.2094,-0.2097,-0.2099,-0.2136,-0.2144,-0.215,0,0,0,0,0,0,-0.205,-0.2075,-0.2073,-0.2093,-0.211,-0.2125,-0.2131,-0.2129,-0.2128,-0.2119,-0.2102,-0.2098,-0.2108,-0.2099,-0.2085,-0.2114,-0.209,-0.2093,-0.2119,-0.2125,-0.2131,-0.2125,-0.2056,0,0,0,0,0,-0.2052,-0.2066,-0.209,-0.2103,-0.2114,-0.2122,-0.213,-0.2131,-0.2135,-0.2133,-0.2123,-0.2117,-0.2123,-0.2121,-0.2122,-0.2137,-0.2124,-0.2149,-0.2155,-0.2159,-0.2155,-0.2161,-0.2167,-0.211,-0.211,-0.211,0,0,-0.2049,-0.2065,-0.2071,-0.2101,-0.2111,-0.2136,-0.2123,-0.2141,-0.2157,-0.213,-0.214,-0.2136,-0.2132,-0.2149,-0.2153,-0.214,-0.217,-0.2163,-0.2167,-0.216,-0.2165,-0.217,-0.2175,-0.2112,-0.2112,-0.2111,0,0,-0.2058,-0.2068,-0.2085,-0.2106,-0.213,-0.2142,-0.2149,-0.2168,-0.2169,-0.2187,-0.2173,-0.2179,-0.2184,-0.2187,-0.2189,-0.2228,-0.22,-0.223,-0.225,-0.2257,-0.2261,-0.2265,-0.2257,-0.2259,-0.2231,-0.2231,-0.2231,0,-0.2052,-0.2079,-0.2094,-0.212,-0.2138,-0.2147,-0.2172,-0.2186,-0.2201,-0.2207,-0.2194,-0.2212,-0.2205,-0.2229,-0.2239,-0.224,-0.2231,-0.2223,-0.2263,-0.2266,-0.2269,-0.226,-0.2262,-0.2234,-0.2234,-0.2233,-0.2233,0,-0.2076,-0.2099,-0.2113,-0.2148,-0.2171,-0.2194,-0.2222,-0.2237,-0.2239,-0.2249,-0.227,-0.2267,-0.2273,-0.228,-0.2268,-0.2292,-0.2274,-0.2269,-0.2242,-0.2277,-0.2265,-0.2267,-0.2237,-0.2236,-0.2236,-0.2235,0,0,-0.2054,-0.2117,-0.212,-0.2139,-0.2187,-0.2206,-0.2244,-0.2277,-0.2293,-0.2308,-0.2326,-0.2341,-0.2331,-0.2332,-0.2324,-0.2328,-0.234,-0.2304,-0.2304,-0.2289,-0.2341,-0.2282,-0.2278,-0.2339,-0.234,-0.234,-0.2325,0,-0.2063,-0.2113,-0.2146,-0.2188,-0.2213,-0.2245,-0.2278,-0.2309,-0.2328,-0.2348,-0.2357,-0.2368,-0.2355,-0.2352,-0.2359,-0.2344,-0.2346,-0.2344,-0.2315,-0.2314,-0.2252,-0.2278,-0.2165,-0.2137,-0.2326,-0.2326,-0.2326,0,-0.207,-0.2103,-0.2147,-0.2204,-0.2218,-0.2245,-0.229,-0.2323,-0.2365,-0.2377,-0.2397,-0.2399,-0.2411,-0.239,-0.2388,-0.2385,-0.2364,-0.2352,-0.2351,-0.2279,-0.2257,-0.2134,-0.2132,-0.2098,-0.2328,-0.2328,-0.2328,0,-0.2031,-0.2099,-0.2129,-0.215,-0.2219,-0.224,-0.2274,-0.2324,-0.2348,-0.2388,-0.2402,-0.2424,-0.2424,-0.2416,-0.2391,-0.2388,-0.2379,-0.2374,-0.2305,-0.23,-0.2188,-0.2172,-0.214,-0.2371,-0.2371,-0.2371,-0.2371,0,-0.2021,-0.2042,-0.211,-0.2124,-0.2154,-0.2215,-0.2246,-0.2285,-0.2338,-0.236,-0.2403,-0.2414,-0.2428,-0.2426,-0.2402,-0.2353,-0.239,-0.2306,-0.2294,-0.2199,-0.2186,-0.2137,-0.2151,-0.2371,-0.2371,-0.2371,-0.2371,0,-0.1966,-0.2016,-0.2048,-0.2116,-0.2134,-0.2151,-0.222,-0.2242,-0.2304,-0.2334,-0.2345,-0.2403,-0.2399,-0.2406,-0.2391,-0.2355,-0.2271,-0.2296,-0.2177,-0.2151,-0.2042,-0.2063,-0.2017,-0.1962,-0.2213,-0.2212,-0.221,0,-0.1941,-0.1951,-0.2016,-0.2026,-0.2052,-0.2091,-0.2115,-0.2201,-0.2229,-0.2314,-0.2319,-0.2351,-0.2347,-0.232,-0.2271,-0.2225,-0.2209,-0.2087,-0.2062,-0.2017,-0.2033,-0.2045,-0.2003,-0.1932,-0.1929,-0.1926,-0.1924,0,-0.1876,-0.1898,-0.192,-0.1944,-0.1967,-0.1999,-0.2046,-0.2069,-0.2163,-0.2197,-0.2235,-0.2246,-0.2243,-0.2151,-0.2105,-0.206,-0.2016,-0.2026,-0.2011,-0.1834,-0.1814,-0.176,-0.1963,-0.1898,-0.1901,-0.1903,-0.1904,-0.1905,-0.1809,-0.1805,-0.1828,-0.1839,-0.1867,-0.1881,-0.1872,-0.1934,-0.1963,-0.1988,-0.2081,-0.2064,-0.2019,-0.1941,-0.1902,-0.1777,-0.185,-0.1702,-0.1738,-0.1761,-0.1683,-0.1827,-0.1732,-0.1734,-0.1735,-0.1736,-0.1737,0,-0.1709,-0.1713,-0.172,-0.1728,-0.1708,-0.1763,-0.1795,-0.1767,-0.1754,-0.1815,-0.1825,-0.1802,-0.1698,-0.1678,-0.1577,-0.1502,-0.1471,-0.1465,-0.1453,-0.1429,-0.1565,-0.1526,-0.1344,-0.1344,-0.1344,-0.1344,-0.1344,-0.1344,-0.1656,-0.1621,-0.1624,-0.1554,-0.1557,-0.1497,-0.1488,-0.1469,-0.1484,-0.1464,-0.1482,-0.1539,-0.1533,-0.1547,-0.142,-0.1348,-0.1316,-0.1271,-0.1319,-0.1413,-0.1438,-0.1462,-0.1427,-0.1228,-0.1228,-0.1103,-0.1102,-0.1101]},{"header":{"parameterUnit":"m.s-1","parameterCategory":2,"la1":30.2991,"la2":30.254,"lo1":-89.0895,"lo2":-89.0444,"dy":0.0017,"dx":0.0017,"nx":28,"ny":28,"refTime":"2025-02-10T03:00:00:Z","depth":"0","parameterNumber":3,"parameterNumberName":"V-component_of_CURRENTS"},"data":[0,0,0,0,0,0,0,0,0,0,0,0,0,0,0,0,0,0,0,0,0,0,0,0,0,0,0,0,0,0,0,0,0,0,0,0,0,0,0,0,0,0,0,0,0,0,0,0,0,0,0,0,0,0,0,0,0,0,-0.034,-0.0339,0,-0.028,-0.0279,-0.0278,-0.0237,-0.0237,-0.0237,-0.0237,-0.0142,-0.0139,-0.0137,0,0,0,0,0,0,0,0,0,0,0,0,0,-0.0377,-0.0377,-0.034,-0.0339,-0.0338,-0.028,-0.0279,-0.0278,-0.0237,-0.0237,-0.0237,-0.0237,-0.0142,-0.014,-0.0137,0,0,0,0,0,0,0,0,0,0,0,0,0,-0.0343,-0.0377,-0.034,-0.0312,-0.0309,-0.028,-0.0279,-0.0278,-0.0237,-0.0237,-0.0237,-0.0236,-0.0143,-0.014,-0.0137,-0.0122,0,0,-0.0126,-0.0124,0,0,0,0,0,0,0,0,-0.0345,-0.0341,-0.0316,-0.0314,-0.031,-0.0266,-0.0257,-0.0224,-0.0237,-0.0263,-0.0237,-0.0236,-0.0181,-0.0174,-0.0163,-0.0117,-0.0113,-0.0126,-0.0123,-0.0122,-0.0121,0,0,0,0,0,0,0,-0.0347,-0.0343,-0.0315,-0.0316,-0.0312,-0.0288,-0.0283,-0.0251,-0.0223,-0.0261,-0.0258,-0.0253,-0.0179,-0.0167,-0.016,-0.0112,-0.0126,-0.0123,-0.012,-0.0119,-0.0041,-0.0041,0,0,0,0,0,0,-0.0359,-0.0346,-0.0317,-0.0313,-0.0328,-0.0288,-0.0282,-0.028,-0.0224,-0.0216,-0.0253,-0.0251,-0.0173,-0.0165,-0.0157,-0.0136,-0.0122,-0.0119,-0.0117,-0.0041,-0.0041,-0.0041,0,0,0,0,0,0,-0.036,-0.0357,-0.0319,-0.0329,-0.0322,-0.0288,-0.0286,-0.0279,-0.0267,-0.0219,-0.021,-0.0248,-0.0172,-0.0162,-0.0129,-0.0132,-0.0117,-0.0114,-0.0041,-0.0041,-0.0041,-0.0094,0,0,0,0,0,0,-0.0361,-0.0358,-0.0361,-0.033,-0.0322,-0.0308,-0.0286,-0.0278,-0.0265,-0.0261,-0.0211,-0.0202,-0.0171,-0.0135,-0.0126,-0.0127,-0.0111,-0.0041,-0.0041,-0.0041,-0.0092,-0.0096,-0.0099,0,0,0,0,0,-0.0363,-0.0371,-0.0362,-0.0358,-0.0328,-0.0309,-0.0303,-0.0276,-0.0265,-0.0263,-0.0227,-0.0204,-0.0129,-0.0132,-0.0121,-0.0122,-0.0041,-0.0041,-0.0041,-0.0091,-0.0095,-0.0099,0,0,0,0,0,0,-0.0388,-0.0367,-0.0356,-0.0357,-0.0337,-0.0302,-0.0299,-0.028,-0.0251,-0.0247,-0.0202,-0.019,-0.0165,-0.0135,-0.014,-0.0099,-0.0082,-0.008,-0.0123,-0.0127,-0.013,-0.0144,-0.0108,0,0,0,0,0,-0.0396,-0.0397,-0.0371,-0.0371,-0.0364,-0.0332,-0.0322,-0.0304,-0.0274,-0.0261,-0.0226,-0.0189,-0.0157,-0.0136,-0.0105,-0.008,-0.0051,-0.0074,-0.0077,-0.008,-0.0084,-0.0045,-0.0045,-0.0042,-0.0042,-0.0042,0,0,-0.0406,-0.0395,-0.0395,-0.0377,-0.0359,-0.0356,-0.0325,-0.0313,-0.0307,-0.0255,-0.0236,-0.0201,-0.0154,-0.0129,-0.0114,-0.0103,-0.0065,-0.008,-0.0084,-0.0086,-0.0045,-0.0045,-0.0045,-0.0042,-0.0042,-0.0042,0,0,-0.0431,-0.0416,-0.0428,-0.0416,-0.0396,-0.0375,-0.0375,-0.0343,-0.0325,-0.0302,-0.0265,-0.023,-0.0183,-0.0148,-0.0125,-0.0126,-0.0088,-0.0118,-0.0141,-0.0103,-0.0103,-0.0102,-0.0066,-0.0062,-0.0116,-0.0116,-0.0116,0,-0.0444,-0.0455,-0.0428,-0.0435,-0.0431,-0.0389,-0.0399,-0.0374,-0.0335,-0.032,-0.0304,-0.0231,-0.0191,-0.0155,-0.0155,-0.0134,-0.0108,-0.0131,-0.0108,-0.0107,-0.0106,-0.0068,-0.0063,-0.0119,-0.0118,-0.0118,-0.0118,0,-0.0477,-0.0485,-0.0491,-0.0488,-0.0477,-0.0478,-0.0444,-0.0427,-0.0399,-0.037,-0.0331,-0.0273,-0.0229,-0.0211,-0.0182,-0.0154,-0.0137,-0.0121,-0.0101,-0.0109,-0.0069,-0.0062,-0.0122,-0.0121,-0.012,-0.012,0,0,-0.0509,-0.0515,-0.0517,-0.053,-0.0507,-0.0504,-0.0489,-0.0465,-0.0456,-0.0407,-0.0387,-0.0326,-0.0291,-0.0262,-0.0217,-0.0179,-0.0145,-0.0152,-0.0148,-0.0121,-0.0063,-0.0021,-0.001,-0.0127,-0.0127,-0.0126,-0.0038,0,-0.0545,-0.0581,-0.0566,-0.0593,-0.0609,-0.0569,-0.056,-0.0528,-0.049,-0.0458,-0.0388,-0.0352,-0.031,-0.0288,-0.0244,-0.0171,-0.0132,-0.0171,-0.0053,-0.005,-0.0017,-0.0002,0.0015,0.0098,-0.0032,-0.0031,-0.003,0,-0.0584,-0.0604,-0.0643,-0.0654,-0.0656,-0.0659,-0.0637,-0.0624,-0.0562,-0.0529,-0.0475,-0.0417,-0.0349,-0.0314,-0.0194,-0.0223,-0.0151,-0.0092,-0.0087,-0.0026,0.0003,0.0087,0.0114,0.0231,-0.002,-0.0021,-0.0021,0,-0.063,-0.0657,-0.0693,-0.0697,-0.0698,-0.0701,-0.0693,-0.0647,-0.0637,-0.0572,-0.0552,-0.0461,-0.041,-0.0315,-0.0185,-0.0192,-0.0049,-0.0042,0.0064,0.0068,0.0118,0.0125,0.0268,0.004,0.0039,0.0039,0.0039,0,-0.0678,-0.0706,-0.072,-0.0741,-0.0776,-0.0753,-0.0769,-0.0742,-0.07,-0.0688,-0.0595,-0.0556,-0.0408,-0.0303,-0.0196,-0.0039,-0.0054,0.0065,0.0097,0.0101,0.0105,0.0238,0.0278,0.0042,0.0042,0.0041,0.004,0,-0.0726,-0.0734,-0.078,-0.0797,-0.0803,-0.0828,-0.083,-0.0835,-0.0785,-0.0764,-0.0746,-0.0621,-0.0479,-0.0321,-0.0149,-0.0048,0.0167,0.015,0.0147,0.0177,0.0373,0.0408,0.0577,0.0639,0.0273,0.0275,0.0276,0,-0.0754,-0.0784,-0.0829,-0.086,-0.0871,-0.0899,-0.0915,-0.0883,-0.0881,-0.0803,-0.0793,-0.0648,-0.0533,-0.0255,-0.0049,0.0161,0.0246,0.0297,0.0288,0.0397,0.0459,0.0484,0.0525,0.0335,0.0337,0.0338,0.0339,0,-0.0806,-0.0821,-0.0859,-0.0925,-0.0959,-0.0995,-0.101,-0.1022,-0.0974,-0.0932,-0.0847,-0.0746,-0.0464,-0.0205,0.0081,0.0206,0.038,0.0332,0.045,0.0527,0.0559,0.0628,0.0262,0.0352,0.035,0.035,0.0349,0.0348,-0.0837,-0.0879,-0.0929,-0.0988,-0.1032,-0.1075,-0.1097,-0.1091,-0.1074,-0.0993,-0.0894,-0.0713,-0.0341,0.0071,0.0217,0.0533,0.0502,0.0621,0.0657,0.0674,0.0732,0.0394,0.0514,0.0514,0.0513,0.0513,0.0513,0,-0.0871,-0.0919,-0.0985,-0.1053,-0.1108,-0.1114,-0.1145,-0.1138,-0.1109,-0.1,-0.0885,-0.0483,-0.0111,0.0232,0.0676,0.0846,0.0875,0.0929,0.0969,0.0996,0.0709,0.071,0.0872,0.0872,0.0871,0.0871,0.0871,0.0871,-0.089,-0.096,-0.0997,-0.1095,-0.1141,-0.1186,-0.1199,-0.1165,-0.1086,-0.088,-0.0657,-0.0484,0.0019,0.0711,0.1114,0.1152,0.1278,0.1273,0.1345,0.1144,0.1118,0.1092,0.1105,0.1347,0.1348,0.1617,0.1619,0.1621]}],[{"header":{"parameterUnit":"m.s-1","parameterCategory":2,"la1":30.2991,"la2":30.254,"lo1":-89.0895,"lo2":-89.0444,"dy":0.0017,"dx":0.0017,"nx":28,"ny":28,"refTime":"2025-02-10T03:00:00:Z","depth":"2","parameterNumber":2,"parameterNumberName":"U-component_of_CURRENTS"},"data":[0,0,0,0,0,0,0,0,0,0,0,0,0,0,0,0,0,0,0,0,0,0,0,0,0,0,0,0,0,0,0,0,0,0,0,0,0,0,0,0,0,0,0,0,0,0,0,0,0,0,0,0,0,0,0,0,0,0,-0.1804,-0.1804,0,-0.1821,-0.1821,-0.1821,-0.1802,-0.1801,-0.1801,-0.18,-0.1777,-0.1777,-0.1777,0,0,0,0,0,0,0,0,0,0,0,0,0,-0.1759,-0.176,-0.1804,-0.1804,-0.1804,-0.1821,-0.1821,-0.1821,-0.1802,-0.1801,-0.1801,-0.18,-0.1777,-0.1777,-0.1777,0,0,0,0,0,0,0,0,0,0,0,0,0,-0.1776,-0.176,-0.1804,-0.1798,-0.1798,-0.1821,-0.1821,-0.1821,-0.1802,-0.1801,-0.1801,-0.18,-0.1777,-0.1777,-0.1777,-0.1792,0,0,-0.1776,-0.1776,0,0,0,0,0,0,0,0,-0.1775,-0.1777,-0.1799,-0.1799,-0.1799,-0.181,-0.1796,-0.181,-0.1802,-0.1799,-0.18,-0.1799,-0.1786,-0.1785,-0.1788,-0.1791,-0.179,-0.1776,-0.1776,-0.1776,-0.1776,0,0,0,0,0,0,0,-0.1774,-0.1776,-0.1809,-0.1799,-0.1799,-0.1797,-0.1798,-0.1799,-0.1795,-0.1799,-0.1798,-0.1803,-0.1785,-0.1788,-0.1787,-0.179,-0.1776,-0.1776,-0.1776,-0.1776,-0.1819,-0.182,0,0,0,0,0,0,-0.1776,-0.1776,-0.1808,-0.1809,-0.1786,-0.1798,-0.1799,-0.1806,-0.1796,-0.1794,-0.1804,-0.1802,-0.1789,-0.1787,-0.1786,-0.1814,-0.1776,-0.1776,-0.1776,-0.1818,-0.1819,-0.1821,0,0,0,0,0,0,-0.1775,-0.1779,-0.1807,-0.1794,-0.1798,-0.18,-0.1807,-0.1806,-0.1809,-0.18,-0.1797,-0.1807,-0.1788,-0.1787,-0.1794,-0.1813,-0.1776,-0.1775,-0.1816,-0.1818,-0.182,-0.1864,0,0,0,0,0,0,-0.1774,-0.1778,-0.1782,-0.1794,-0.1798,-0.1826,-0.1808,-0.1807,-0.1814,-0.1812,-0.1802,-0.1799,-0.1787,-0.1794,-0.1794,-0.1812,-0.1775,-0.1815,-0.1817,-0.1819,-0.1861,-0.1867,-0.1872,0,0,0,0,0,-0.1772,-0.1782,-0.1782,-0.1786,-0.1804,-0.1826,-0.1829,-0.1826,-0.1815,-0.1823,-0.1817,-0.1799,-0.1809,-0.1795,-0.1794,-0.1813,-0.1814,-0.1817,-0.1819,-0.1858,-0.1865,-0.1872,0,0,0,0,0,0,-0.1764,-0.1782,-0.1781,-0.1796,-0.1812,-0.1824,-0.183,-0.183,-0.1833,-0.1827,-0.1813,-0.181,-0.1825,-0.1816,-0.1801,-0.1834,-0.181,-0.1812,-0.1839,-0.1846,-0.1852,-0.1845,-0.1775,0,0,0,0,0,-0.1765,-0.1775,-0.1795,-0.1805,-0.1815,-0.1823,-0.183,-0.1833,-0.1839,-0.1838,-0.1833,-0.1831,-0.1838,-0.1838,-0.1841,-0.1857,-0.1844,-0.187,-0.1876,-0.1881,-0.1876,-0.1884,-0.189,-0.183,-0.183,-0.183,0,0,-0.1763,-0.1775,-0.178,-0.1804,-0.1813,-0.1835,-0.1825,-0.1842,-0.1859,-0.1836,-0.1851,-0.1849,-0.1847,-0.1866,-0.1872,-0.1859,-0.1892,-0.1884,-0.1888,-0.1881,-0.1887,-0.1893,-0.1898,-0.1832,-0.1831,-0.1831,0,0,-0.177,-0.1778,-0.1791,-0.181,-0.1832,-0.1843,-0.185,-0.1868,-0.1873,-0.1894,-0.1883,-0.1893,-0.1901,-0.1906,-0.1908,-0.1949,-0.1922,-0.1952,-0.1973,-0.1981,-0.1986,-0.199,-0.198,-0.1982,-0.1954,-0.1954,-0.1954,0,-0.1767,-0.1787,-0.1798,-0.1822,-0.1838,-0.1849,-0.1872,-0.1887,-0.1904,-0.1913,-0.1904,-0.1927,-0.1922,-0.1948,-0.196,-0.1961,-0.1952,-0.1946,-0.1988,-0.1991,-0.1994,-0.1983,-0.1985,-0.1956,-0.1956,-0.1956,-0.1955,0,-0.1786,-0.1805,-0.1817,-0.1848,-0.187,-0.1892,-0.1919,-0.1937,-0.1944,-0.1956,-0.1981,-0.1981,-0.1991,-0.2,-0.1989,-0.2016,-0.1998,-0.1994,-0.1967,-0.2003,-0.1989,-0.199,-0.196,-0.1959,-0.1958,-0.1957,0,0,-0.1764,-0.1819,-0.1822,-0.1841,-0.1886,-0.1904,-0.1942,-0.1976,-0.1995,-0.2014,-0.2036,-0.2055,-0.2048,-0.2051,-0.2045,-0.2051,-0.2066,-0.203,-0.2029,-0.2014,-0.207,-0.2012,-0.2007,-0.2068,-0.2069,-0.2069,-0.205,0,-0.1772,-0.1815,-0.1845,-0.1885,-0.1909,-0.1942,-0.1975,-0.2008,-0.203,-0.2055,-0.2066,-0.2083,-0.2071,-0.2073,-0.2082,-0.207,-0.2072,-0.207,-0.2042,-0.2041,-0.198,-0.2008,-0.1844,-0.1809,-0.2051,-0.2052,-0.2052,0,-0.1776,-0.1805,-0.1846,-0.1902,-0.1915,-0.1943,-0.1992,-0.2025,-0.2069,-0.2085,-0.2109,-0.2114,-0.213,-0.2112,-0.2113,-0.2111,-0.2091,-0.208,-0.2079,-0.2008,-0.1986,-0.1814,-0.1803,-0.2054,-0.2054,-0.2054,-0.2053,0,-0.1741,-0.1804,-0.1833,-0.1853,-0.1919,-0.1942,-0.1976,-0.2027,-0.2053,-0.2099,-0.2116,-0.2141,-0.2145,-0.214,-0.2117,-0.2115,-0.2107,-0.2104,-0.2034,-0.2029,-0.1874,-0.1854,-0.2102,-0.2102,-0.2102,-0.2102,-0.2102,0,-0.1732,-0.1753,-0.1817,-0.1831,-0.1863,-0.192,-0.1955,-0.1996,-0.205,-0.2073,-0.2119,-0.2132,-0.2151,-0.215,-0.2128,-0.208,-0.2117,-0.2035,-0.2023,-0.1885,-0.1868,-0.2067,-0.2063,-0.2101,-0.2101,-0.2101,-0.2101,0,-0.1682,-0.1729,-0.176,-0.1826,-0.1845,-0.1865,-0.1934,-0.1956,-0.202,-0.2052,-0.2066,-0.2123,-0.2121,-0.2129,-0.2117,-0.2082,-0.2052,-0.2024,-0.1853,-0.1821,-0.1964,-0.1963,-0.1946,-0.1944,-0.1942,-0.1941,-0.1939,0,-0.166,-0.167,-0.1734,-0.1746,-0.1772,-0.1813,-0.1837,-0.1921,-0.1947,-0.2032,-0.2036,-0.207,-0.206,-0.2034,-0.1988,-0.1942,-0.2001,-0.1762,-0.1733,-0.1959,-0.195,-0.1951,-0.1953,-0.1543,-0.1538,-0.1535,-0.1532,0,-0.1603,-0.1625,-0.1647,-0.1672,-0.1697,-0.1729,-0.1773,-0.1792,-0.1883,-0.1912,-0.1942,-0.1948,-0.1943,-0.1825,-0.1783,-0.1734,-0.176,-0.1687,-0.1964,-0.1615,-0.1579,-0.157,-0.1584,-0.1499,-0.1503,-0.1505,-0.1507,-0.1508,-0.1545,-0.1543,-0.1567,-0.158,-0.1608,-0.1617,-0.1606,-0.1658,-0.1677,-0.1692,-0.1778,-0.1733,-0.1727,-0.1581,-0.1506,-0.1452,-0.1578,-0.149,-0.1501,-0.1516,-0.148,-0.1444,-0.1331,-0.1333,-0.1335,-0.1336,-0.1338,0,-0.1458,-0.1462,-0.1471,-0.1479,-0.1461,-0.1513,-0.1534,-0.1498,-0.147,-0.1509,-0.1508,-0.1361,-0.1282,-0.1293,-0.1163,-0.1141,-0.1127,-0.1084,-0.1058,-0.109,-0.1119,-0.1063,-0.0803,-0.0802,-0.08,-0.0799,0,0,-0.1413,-0.1381,-0.1382,-0.1318,-0.1322,-0.1262,-0.1246,-0.1211,-0.1206,-0.1145,-0.112,-0.1207,-0.1248,-0.1022,-0.0969,-0.0866,-0.0968,-0.082,-0.1247,-0.1247,-0.1274,-0.1348,-0.1298,0,0,0,0,0]},{"header":{"parameterUnit":"m.s-1","parameterCategory":2,"la1":30.2991,"la2":30.254,"lo1":-89.0895,"lo2":-89.0444,"dy":0.0017,"dx":0.0017,"nx":28,"ny":28,"refTime":"2025-02-10T03:00:00:Z","depth":"2","parameterNumber":3,"parameterNumberName":"V-component_of_CURRENTS"},"data":[0,0,0,0,0,0,0,0,0,0,0,0,0,0,0,0,0,0,0,0,0,0,0,0,0,0,0,0,0,0,0,0,0,0,0,0,0,0,0,0,0,0,0,0,0,0,0,0,0,0,0,0,0,0,0,0,0,0,-0.02,-0.02,0,-0.0148,-0.0147,-0.0147,-0.0111,-0.011,-0.011,-0.011,-0.0022,-0.002,-0.0018,0,0,0,0,0,0,0,0,0,0,0,0,0,-0.023,-0.0229,-0.02,-0.02,-0.0199,-0.0148,-0.0147,-0.0147,-0.0111,-0.011,-0.011,-0.011,-0.0023,-0.002,-0.0018,0,0,0,0,0,0,0,0,0,0,0,0,0,-0.02,-0.0229,-0.02,-0.0176,-0.0173,-0.0148,-0.0147,-0.0146,-0.0111,-0.011,-0.011,-0.011,-0.0024,-0.002,-0.0017,-0.0002,0,0,-0.0007,-0.0006,0,0,0,0,0,0,0,0,-0.0202,-0.0199,-0.018,-0.0178,-0.0175,-0.0136,-0.0125,-0.0097,-0.0111,-0.0133,-0.011,-0.011,-0.0058,-0.0052,-0.0042,0.0002,0.0005,-0.0007,-0.0005,-0.0004,-0.0003,0,0,0,0,0,0,0,-0.0204,-0.0201,-0.0179,-0.0179,-0.0176,-0.0154,-0.015,-0.012,-0.0096,-0.0131,-0.0129,-0.0125,-0.0056,-0.0045,-0.0039,0.0007,-0.0007,-0.0004,-0.0002,-0.0001,0.0071,0.0071,0,0,0,0,0,0,-0.0215,-0.0203,-0.018,-0.0177,-0.0189,-0.0154,-0.0149,-0.0148,-0.0097,-0.009,-0.0125,-0.0123,-0.0051,-0.0043,-0.0036,-0.0017,-0.0004,-0.0,0.0001,0.0071,0.0071,0.0071,0,0,0,0,0,0,-0.0216,-0.0214,-0.0182,-0.0189,-0.0184,-0.0154,-0.0153,-0.0147,-0.0137,-0.0093,-0.0085,-0.0121,-0.005,-0.004,-0.0011,-0.0013,0.0001,0.0004,0.0071,0.0071,0.0071,0.0023,0,0,0,0,0,0,-0.0217,-0.0214,-0.0218,-0.019,-0.0184,-0.0174,-0.0153,-0.0146,-0.0135,-0.0132,-0.0087,-0.0078,-0.0049,-0.0016,-0.0007,-0.0008,0.0007,0.0071,0.0071,0.0071,0.0024,0.0021,0.0018,0,0,0,0,0,-0.0218,-0.0226,-0.0219,-0.0216,-0.019,-0.0174,-0.0169,-0.0145,-0.0136,-0.0135,-0.0102,-0.008,-0.0011,-0.0013,-0.0003,-0.0003,0.0071,0.0071,0.0071,0.0026,0.0021,0.0018,0,0,0,0,0,0,-0.024,-0.0223,-0.0214,-0.0216,-0.0199,-0.0169,-0.0166,-0.015,-0.0124,-0.012,-0.0078,-0.0067,-0.0044,-0.0016,-0.002,0.0017,0.0033,0.0035,-0.0005,-0.0008,-0.0011,-0.0023,0.0009,0,0,0,0,0,-0.0248,-0.025,-0.0227,-0.0229,-0.0223,-0.0195,-0.0186,-0.0171,-0.0145,-0.0133,-0.0101,-0.0066,-0.0037,-0.0018,0.001,0.0034,0.0063,0.004,0.0037,0.0034,0.0031,0.007,0.007,0.007,0.007,0.007,0,0,-0.0256,-0.0247,-0.0248,-0.0234,-0.0219,-0.0217,-0.0189,-0.018,-0.0175,-0.0127,-0.011,-0.0078,-0.0035,-0.0011,0.0002,0.0013,0.0049,0.0034,0.0031,0.003,0.007,0.007,0.007,0.007,0.007,0.007,0,0,-0.0279,-0.0267,-0.0279,-0.0269,-0.0253,-0.0235,-0.0235,-0.0208,-0.0192,-0.0171,-0.0137,-0.0105,-0.0062,-0.0029,-0.0007,-0.0009,0.0028,-0.0002,-0.0022,0.0016,0.0016,0.0017,0.0052,0.0056,0.0,0.0,0.0,0,-0.029,-0.0301,-0.0279,-0.0287,-0.0283,-0.0247,-0.0257,-0.0235,-0.0201,-0.0187,-0.0174,-0.0106,-0.007,-0.0034,-0.0035,-0.0016,0.0009,-0.0013,0.0011,0.0012,0.0014,0.005,0.0055,-0.0002,-0.0002,-0.0002,-0.0001,0,-0.0321,-0.0329,-0.0335,-0.0334,-0.0325,-0.0328,-0.0298,-0.0284,-0.026,-0.0234,-0.0197,-0.0144,-0.0103,-0.0087,-0.006,-0.0032,-0.0017,-0.0002,0.0018,0.0011,0.0049,0.0055,-0.0005,-0.0005,-0.0004,-0.0003,0,0,-0.0349,-0.0357,-0.0359,-0.0371,-0.0352,-0.0351,-0.0339,-0.0317,-0.0309,-0.0266,-0.0247,-0.019,-0.0158,-0.0131,-0.009,-0.0053,-0.0019,-0.0028,-0.0025,0.0002,0.0062,0.0086,0.0096,-0.0002,-0.0001,-0.0,0.0083,0,-0.0381,-0.0416,-0.0404,-0.0429,-0.0444,-0.0409,-0.0402,-0.0374,-0.034,-0.0311,-0.0246,-0.0214,-0.0175,-0.0156,-0.0112,-0.0045,-0.0005,-0.0044,0.0069,0.0072,0.0092,0.0103,0.008,0.0154,0.009,0.0091,0.0092,0,-0.0417,-0.0436,-0.0472,-0.0484,-0.0485,-0.049,-0.0471,-0.046,-0.0404,-0.0375,-0.0325,-0.0273,-0.0209,-0.0177,-0.0062,-0.009,-0.0021,0.0035,0.0039,0.0083,0.0109,0.0152,0.0168,0.0103,0.0102,0.0101,0.01,0,-0.0457,-0.0483,-0.0517,-0.0521,-0.0524,-0.0528,-0.0522,-0.0481,-0.0472,-0.0414,-0.0397,-0.0312,-0.0267,-0.0174,-0.0055,-0.006,0.0073,0.0083,0.0174,0.0176,0.019,0.0192,0.0165,0.0165,0.0165,0.0165,0.0164,0,-0.05,-0.0526,-0.0541,-0.056,-0.0594,-0.0574,-0.059,-0.0566,-0.053,-0.0519,-0.0435,-0.0402,-0.0266,-0.0169,-0.0066,0.0076,0.007,0.0174,0.0202,0.0173,0.0173,0.0153,0.0151,0.0168,0.0167,0.0166,0.0166,0,-0.0541,-0.055,-0.0593,-0.0611,-0.0618,-0.0641,-0.0646,-0.0652,-0.0608,-0.059,-0.0574,-0.0465,-0.0338,-0.0192,-0.003,0.0063,0.0194,0.0246,0.0203,0.0224,0.0272,0.0266,0.035,0.0352,0.0353,0.0354,0.0355,0,-0.0566,-0.0593,-0.0638,-0.0667,-0.0679,-0.0707,-0.0723,-0.0696,-0.0696,-0.0627,-0.0619,-0.0493,-0.0392,-0.0142,0.004,0.0234,0.0237,0.0325,0.0314,0.0273,0.0292,0.0284,0.0277,0.0315,0.0315,0.0316,0.0316,0,-0.0612,-0.0628,-0.0663,-0.0726,-0.0759,-0.0794,-0.0811,-0.0822,-0.078,-0.0745,-0.0673,-0.0585,-0.0341,-0.0129,0.0126,0.0236,0.029,0.034,0.032,0.0268,0.0246,0.0262,0.0255,0.032,0.032,0.0319,0.0319,0.0319,-0.064,-0.0678,-0.0726,-0.0782,-0.0825,-0.0865,-0.0887,-0.0884,-0.0872,-0.08,-0.0718,-0.0562,-0.0355,0.0005,0.0184,0.0353,0.0348,0.0394,0.039,0.0386,0.0363,0.0345,0.0433,0.0434,0.0434,0.0434,0.0434,0,-0.0672,-0.0715,-0.0777,-0.0841,-0.0893,-0.0901,-0.0931,-0.0924,-0.0901,-0.0809,-0.0711,-0.0474,-0.0228,-0.0008,0.0261,0.0419,0.0403,0.0444,0.0391,0.0386,0.0382,0.0357,0.0427,0.0428,0.0428,0.0428,0,0,-0.069,-0.0753,-0.0786,-0.0878,-0.0923,-0.0966,-0.0979,-0.0945,-0.0878,-0.0776,-0.0654,-0.0493,-0.0222,-0.0035,0.0163,0.0305,0.0305,0.0318,0.0308,0.0218,0.0212,0.0339,0.0294,0,0,0,0,0]}],[{"header":{"parameterUnit":"m.s-1","parameterCategory":2,"la1":30.2991,"la2":30.254,"lo1":-89.0895,"lo2":-89.0444,"dy":0.0017,"dx":0.0017,"nx":28,"ny":28,"refTime":"2025-02-10T03:00:00:Z","depth":"4","parameterNumber":2,"parameterNumberName":"U-component_of_CURRENTS"},"data":[0,0,0,0,0,0,0,0,0,0,0,0,0,0,0,0,0,0,0,0,0,0,0,0,0,0,0,0,0,0,0,0,0,0,0,0,0,0,0,0,0,0,0,0,0,0,0,0,0,0,0,0,0,0,0,0,0,0,-0.1262,-0.1262,0,-0.1303,-0.1303,-0.1304,-0.1328,-0.1329,-0.1329,-0.1329,-0.1362,-0.1362,-0.1363,0,0,0,0,0,0,0,0,0,0,0,0,0,-0.1209,-0.121,-0.1262,-0.1262,-0.1263,-0.1303,-0.1303,-0.1304,-0.1328,-0.1329,-0.1329,-0.1329,-0.1361,-0.1362,-0.1363,0,0,0,0,0,0,0,0,0,0,0,0,0,-0.1238,-0.121,-0.1262,-0.1281,-0.1283,-0.1303,-0.1303,-0.1304,-0.1328,-0.1329,-0.1329,-0.1329,-0.1361,-0.1362,-0.1363,-0.1362,0,0,-0.1366,-0.1367,0,0,0,0,0,0,0,0,-0.1237,-0.124,-0.1278,-0.128,-0.1282,-0.1312,-0.1297,-0.1323,-0.1328,-0.131,-0.1329,-0.133,-0.1345,-0.1347,-0.1353,-0.1364,-0.1365,-0.1366,-0.1367,-0.1367,-0.1367,0,0,0,0,0,0,0,-0.1235,-0.1239,-0.1277,-0.1278,-0.1281,-0.1289,-0.1294,-0.1302,-0.1324,-0.1312,-0.1314,-0.132,-0.1346,-0.1352,-0.1353,-0.1366,-0.1366,-0.1367,-0.1368,-0.1368,-0.1446,-0.1447,0,0,0,0,0,0,-0.1231,-0.1237,-0.1276,-0.1278,-0.1261,-0.129,-0.1295,-0.1301,-0.1324,-0.1328,-0.132,-0.1321,-0.135,-0.1352,-0.1355,-0.1415,-0.1367,-0.1368,-0.1369,-0.1444,-0.1446,-0.1448,0,0,0,0,0,0,-0.123,-0.1234,-0.1274,-0.1259,-0.1265,-0.1291,-0.1298,-0.1302,-0.1329,-0.1331,-0.1335,-0.1345,-0.135,-0.1353,-0.1386,-0.1414,-0.1369,-0.1369,-0.1443,-0.1445,-0.1447,-0.1498,0,0,0,0,0,0,-0.1228,-0.1234,-0.1247,-0.1259,-0.1266,-0.1301,-0.1297,-0.1302,-0.1331,-0.1334,-0.1353,-0.1355,-0.1351,-0.1384,-0.1387,-0.1415,-0.137,-0.1441,-0.1444,-0.1446,-0.1494,-0.1501,-0.1507,0,0,0,0,0,-0.1226,-0.124,-0.1247,-0.1253,-0.128,-0.1302,-0.1307,-0.1325,-0.1332,-0.1349,-0.1365,-0.1356,-0.1403,-0.1386,-0.1389,-0.1418,-0.1439,-0.1443,-0.1446,-0.1491,-0.15,-0.1507,0,0,0,0,0,0,-0.1226,-0.1244,-0.1253,-0.1272,-0.1294,-0.1307,-0.1326,-0.1338,-0.1364,-0.1372,-0.1372,-0.1376,-0.1415,-0.1411,-0.1392,-0.1449,-0.1421,-0.1425,-0.1454,-0.1462,-0.1469,-0.146,-0.1371,0,0,0,0,0,-0.1231,-0.1247,-0.1266,-0.1284,-0.1296,-0.1316,-0.1331,-0.1345,-0.1364,-0.1377,-0.1392,-0.1409,-0.1427,-0.1441,-0.1454,-0.1484,-0.147,-0.1506,-0.1512,-0.1518,-0.1514,-0.1526,-0.1533,-0.1459,-0.1459,-0.1459,0,0,-0.1236,-0.1249,-0.1259,-0.1286,-0.1303,-0.1328,-0.1326,-0.1357,-0.1384,-0.1376,-0.1423,-0.1433,-0.1441,-0.1476,-0.1494,-0.1479,-0.1532,-0.1522,-0.1527,-0.1519,-0.153,-0.1537,-0.1543,-0.1461,-0.146,-0.146,0,0,-0.1248,-0.1267,-0.1283,-0.1305,-0.1337,-0.135,-0.1365,-0.1394,-0.1416,-0.1457,-0.146,-0.1489,-0.1519,-0.153,-0.1538,-0.1589,-0.1567,-0.16,-0.1627,-0.164,-0.1646,-0.1651,-0.1639,-0.1643,-0.1604,-0.1604,-0.1604,0,-0.1257,-0.1277,-0.1294,-0.1317,-0.134,-0.1363,-0.1391,-0.1417,-0.1456,-0.1477,-0.1481,-0.1535,-0.1543,-0.158,-0.1599,-0.1604,-0.1598,-0.1595,-0.1648,-0.1652,-0.1656,-0.1643,-0.1647,-0.1607,-0.1606,-0.1606,-0.1606,0,-0.1274,-0.1303,-0.1317,-0.1353,-0.1381,-0.141,-0.1445,-0.1481,-0.1511,-0.1533,-0.1585,-0.16,-0.1627,-0.1642,-0.1636,-0.1676,-0.1657,-0.1653,-0.1623,-0.1667,-0.1651,-0.1653,-0.1611,-0.161,-0.1609,-0.1608,0,0,-0.1257,-0.1317,-0.1325,-0.1351,-0.1405,-0.1426,-0.148,-0.1526,-0.156,-0.1604,-0.1644,-0.1684,-0.169,-0.1699,-0.1702,-0.1715,-0.174,-0.1699,-0.1698,-0.168,-0.1753,-0.1638,-0.1629,-0.1748,-0.1749,-0.1749,-0.1729,0,-0.1268,-0.1314,-0.1346,-0.1401,-0.1427,-0.1473,-0.1518,-0.1566,-0.1607,-0.1651,-0.1679,-0.1717,-0.1713,-0.173,-0.1746,-0.1742,-0.1749,-0.1745,-0.172,-0.1718,-0.1605,-0.1629,-0.1752,-0.173,-0.1731,-0.1731,-0.1731,0,-0.1268,-0.1301,-0.1354,-0.1423,-0.144,-0.1481,-0.1553,-0.1596,-0.166,-0.1692,-0.1734,-0.1752,-0.1784,-0.1773,-0.1789,-0.1787,-0.1773,-0.1766,-0.1765,-0.1637,-0.1607,-0.168,-0.1735,-0.1735,-0.1734,-0.1734,-0.1734,0,-0.1231,-0.1305,-0.1348,-0.1373,-0.1453,-0.1493,-0.154,-0.161,-0.1646,-0.1716,-0.1743,-0.1786,-0.1805,-0.181,-0.1796,-0.1798,-0.1796,-0.1796,-0.1677,-0.1668,-0.1756,-0.1751,-0.1801,-0.1801,-0.1801,-0.1801,-0.1801,0,-0.1214,-0.1251,-0.134,-0.1361,-0.1416,-0.1481,-0.154,-0.1594,-0.1663,-0.1692,-0.1757,-0.1771,-0.1817,-0.182,-0.1805,-0.1736,-0.1804,-0.1674,-0.1656,-0.1778,-0.1776,-0.1757,-0.1752,-0.18,-0.18,-0.1801,-0.1801,0,-0.116,-0.1221,-0.1274,-0.1367,-0.1399,-0.1438,-0.1531,-0.1563,-0.1642,-0.1681,-0.1703,-0.1767,-0.1764,-0.1784,-0.1783,-0.1728,-0.1689,-0.1649,-0.1765,-0.1755,-0.155,-0.1549,-0.1511,-0.1506,-0.1503,-0.15,-0.1497,0,-0.1133,-0.1156,-0.1261,-0.1289,-0.1335,-0.1403,-0.1441,-0.1539,-0.1565,-0.1654,-0.1654,-0.1693,-0.1716,-0.1614,-0.1655,-0.1614,-0.1598,-0.1565,-0.1567,-0.1534,-0.1521,-0.1525,-0.1529,-0.1491,-0.1491,-0.149,-0.1489,0,-0.1075,-0.1124,-0.1165,-0.1223,-0.1274,-0.132,-0.1382,-0.139,-0.1484,-0.1574,-0.1554,-0.1546,-0.1538,-0.1529,-0.1506,-0.1481,-0.1582,-0.1528,-0.1535,-0.1536,-0.1511,-0.1502,-0.151,-0.1476,-0.1478,-0.1479,-0.148,0,-0.103,-0.1043,-0.11,-0.1138,-0.1196,-0.1207,-0.1258,-0.1279,-0.1318,-0.142,-0.1406,-0.145,-0.1515,-0.1458,-0.1438,-0.1403,-0.1384,-0.1338,-0.1355,-0.137,-0.1334,-0.1282,-0.1153,0,0,0,0,0,-0.0975,-0.0975,-0.1005,-0.104,-0.1091,-0.112,-0.1198,-0.125,-0.1343,-0.1289,-0.1344,-0.1329,-0.13,-0.1327,-0.1259,-0.1375,-0.1391,-0.1291,-0.1349,-0.1407,-0.1422,-0.1393,0,0,0,0,0,0,-0.0938,-0.0964,-0.0969,-0.0941,-0.0942,-0.0984,-0.1026,-0.1095,-0.1073,-0.1173,-0.1162,-0.1241,-0.1233,-0.1312,-0.1228,-0.1236,-0.1243,-0.1329,-0.1325,-0.1399,-0.1412,-0.1424,-0.1399,0,0,0,0,0]},{"header":{"parameterUnit":"m.s-1","parameterCategory":2,"la1":30.2991,"la2":30.254,"lo1":-89.0895,"lo2":-89.0444,"dy":0.0017,"dx":0.0017,"nx":28,"ny":28,"refTime":"2025-02-10T03:00:00:Z","depth":"4","parameterNumber":3,"parameterNumberName":"V-component_of_CURRENTS"},"data":[0,0,0,0,0,0,0,0,0,0,0,0,0,0,0,0,0,0,0,0,0,0,0,0,0,0,0,0,0,0,0,0,0,0,0,0,0,0,0,0,0,0,0,0,0,0,0,0,0,0,0,0,0,0,0,0,0,0,-0.0138,-0.0138,0,-0.0106,-0.0106,-0.0105,-0.0081,-0.0081,-0.0081,-0.0081,-0.0013,-0.0012,-0.001,0,0,0,0,0,0,0,0,0,0,0,0,0,-0.015,-0.015,-0.0138,-0.0138,-0.0138,-0.0106,-0.0106,-0.0105,-0.0081,-0.0081,-0.0081,-0.0081,-0.0014,-0.0012,-0.001,0,0,0,0,0,0,0,0,0,0,0,0,0,-0.0133,-0.015,-0.0138,-0.0123,-0.0121,-0.0106,-0.0105,-0.0105,-0.0082,-0.0081,-0.0081,-0.0081,-0.0014,-0.0012,-0.0009,0.0003,0,0,-0.0002,-0.0001,0,0,0,0,0,0,0,0,-0.0134,-0.0133,-0.0125,-0.0124,-0.0122,-0.0098,-0.0085,-0.0067,-0.0082,-0.0096,-0.0081,-0.0081,-0.0039,-0.0035,-0.0028,0.0006,0.0009,-0.0001,0.0,0.0001,0.0002,0,0,0,0,0,0,0,-0.0135,-0.0134,-0.0125,-0.0125,-0.0123,-0.0107,-0.0105,-0.0081,-0.0067,-0.0094,-0.0093,-0.0091,-0.0038,-0.0031,-0.0026,0.001,-0.0002,0.0001,0.0002,0.0003,0.0059,0.0059,0,0,0,0,0,0,-0.0143,-0.0135,-0.0126,-0.0124,-0.0129,-0.0107,-0.0105,-0.0105,-0.0068,-0.0063,-0.0091,-0.009,-0.0035,-0.0029,-0.0024,-0.0009,0.0001,0.0004,0.0005,0.0059,0.0059,0.0059,0,0,0,0,0,0,-0.0143,-0.0142,-0.0127,-0.0129,-0.0126,-0.0108,-0.0108,-0.0105,-0.0099,-0.0066,-0.006,-0.0089,-0.0035,-0.0027,-0.0005,-0.0006,0.0005,0.0007,0.0059,0.0059,0.0059,0.0021,0,0,0,0,0,0,-0.0144,-0.0143,-0.0147,-0.013,-0.0126,-0.0123,-0.0109,-0.0104,-0.0099,-0.0097,-0.0063,-0.0056,-0.0034,-0.0009,-0.0002,-0.0003,0.0009,0.0059,0.0059,0.0059,0.0022,0.002,0.0017,0,0,0,0,0,-0.0144,-0.0152,-0.0148,-0.0147,-0.0133,-0.0124,-0.0121,-0.0106,-0.0099,-0.0099,-0.0075,-0.0058,-0.0005,-0.0007,0.0001,0.0001,0.0059,0.0059,0.0059,0.0023,0.002,0.0017,0,0,0,0,0,0,-0.0158,-0.015,-0.0145,-0.015,-0.014,-0.012,-0.012,-0.0109,-0.0091,-0.0089,-0.0057,-0.0048,-0.0031,-0.0009,-0.0012,0.0017,0.003,0.0031,0.0,-0.0003,-0.0005,-0.0015,0.0011,0,0,0,0,0,-0.0165,-0.0169,-0.0156,-0.016,-0.0157,-0.014,-0.0134,-0.0125,-0.0107,-0.0099,-0.0075,-0.0048,-0.0025,-0.001,0.0011,0.003,0.0054,0.0035,0.0032,0.003,0.0028,0.0063,0.0063,0.0059,0.0059,0.0059,0,0,-0.0171,-0.0167,-0.017,-0.0164,-0.0155,-0.0156,-0.0136,-0.0132,-0.013,-0.0093,-0.0083,-0.0058,-0.0024,-0.0006,0.0004,0.0013,0.0044,0.003,0.0028,0.0026,0.0063,0.0063,0.0064,0.0059,0.0059,0.0059,0,0,-0.0189,-0.0184,-0.0194,-0.019,-0.0182,-0.017,-0.0172,-0.0155,-0.0144,-0.0131,-0.0104,-0.0079,-0.0047,-0.002,-0.0002,-0.0004,0.0027,0.0001,-0.0014,0.002,0.0021,0.0021,0.0052,0.0055,0.0004,0.0004,0.0004,0,-0.0197,-0.0209,-0.0195,-0.0204,-0.0204,-0.018,-0.019,-0.0175,-0.0153,-0.0143,-0.0134,-0.0082,-0.0053,-0.0023,-0.0025,-0.0009,0.0012,-0.0007,0.0016,0.0018,0.0019,0.005,0.0055,0.0002,0.0002,0.0002,0.0002,0,-0.0221,-0.0231,-0.0237,-0.0241,-0.0237,-0.0242,-0.0223,-0.0215,-0.0199,-0.0181,-0.0153,-0.0112,-0.008,-0.0066,-0.0045,-0.002,-0.0008,0.0005,0.0022,0.0017,0.005,0.0056,-0.0001,-0.0,0.0,0.0001,0,0,-0.024,-0.0253,-0.0256,-0.0268,-0.0259,-0.0261,-0.0255,-0.0242,-0.0238,-0.0206,-0.0194,-0.0148,-0.0123,-0.0101,-0.0068,-0.0035,-0.0004,-0.0014,-0.0012,0.0012,0.0069,0.006,0.0065,0.0012,0.0013,0.0014,0.0086,0,-0.0264,-0.0294,-0.0289,-0.0314,-0.0327,-0.0306,-0.0305,-0.0287,-0.0264,-0.0244,-0.0192,-0.0169,-0.0136,-0.0122,-0.0083,-0.0027,0.001,-0.0025,0.0073,0.0076,0.0066,0.0071,0.0016,0.0091,0.0092,0.0093,0.0094,0,-0.0289,-0.0307,-0.034,-0.0356,-0.0359,-0.0368,-0.0361,-0.0356,-0.0317,-0.0297,-0.0257,-0.0217,-0.0163,-0.0137,-0.0038,-0.0063,-0.0002,0.0046,0.005,0.0058,0.0077,0.0098,0.0105,0.0104,0.0103,0.0102,0.0102,0,-0.0314,-0.0342,-0.0372,-0.0378,-0.0389,-0.0398,-0.04,-0.0374,-0.0371,-0.0329,-0.0318,-0.0248,-0.0213,-0.0131,-0.0033,-0.0036,0.0077,0.0089,0.0143,0.0143,0.0146,0.0144,0.0163,0.0163,0.0163,0.0163,0.0163,0,-0.034,-0.0365,-0.039,-0.0408,-0.0442,-0.0434,-0.0455,-0.0441,-0.0419,-0.0413,-0.0349,-0.0324,-0.0211,-0.0132,-0.0042,0.0064,0.0074,0.014,0.0161,0.0128,0.0123,0.015,0.0147,0.0166,0.0165,0.0164,0.0164,0,-0.0362,-0.0378,-0.0419,-0.0446,-0.0458,-0.0482,-0.0502,-0.051,-0.0484,-0.0472,-0.0461,-0.0379,-0.0277,-0.0158,-0.0019,0.0047,0.0153,0.0193,0.0145,0.0163,0.0199,0.0193,0.0254,0.0254,0.0254,0.0254,0.0254,0,-0.0375,-0.0399,-0.0453,-0.0483,-0.0501,-0.0535,-0.0556,-0.0546,-0.0549,-0.0503,-0.0496,-0.0402,-0.0333,-0.0143,-0.0023,0.0148,0.0173,0.0225,0.0214,0.0193,0.0208,0.0203,0.0197,0.0255,0.0255,0.0255,0.0255,0,-0.0398,-0.0422,-0.0455,-0.052,-0.0559,-0.0597,-0.0622,-0.0628,-0.0604,-0.0585,-0.0513,-0.041,-0.0293,-0.0147,-0.0012,0.0109,0.0185,0.0228,0.0228,0.0218,0.0196,0.0209,0.0203,0.0256,0.0256,0.0256,0.0256,0,-0.0414,-0.0446,-0.0495,-0.0548,-0.0602,-0.0637,-0.065,-0.0641,-0.0635,-0.0574,-0.0554,-0.0419,-0.034,-0.0166,-0.0045,0.0074,0.0103,0.0136,0.0142,0.0142,0.0085,0.0039,0.0069,0,0,0,0,0,-0.0424,-0.0462,-0.0518,-0.0575,-0.0629,-0.0656,-0.0682,-0.0683,-0.0661,-0.0614,-0.0578,-0.0464,-0.0276,-0.0198,-0.008,-0.0048,0.0114,0.0093,0.0153,0.0261,0.026,0.0211,0,0,0,0,0,0,-0.0433,-0.0488,-0.0517,-0.0583,-0.0625,-0.0675,-0.0692,-0.0679,-0.0645,-0.0608,-0.0508,-0.0444,-0.0263,-0.034,-0.0079,-0.0045,0.0007,0.0184,0.0186,0.0261,0.026,0.026,0.0209,0,0,0,0,0]}]]